SCP
0 0 0 0 0 0 0 0 0 0 0 0 0 0 0 0 0 0 0 0 0 0 0 0 0 0 0 0 0 0 0 0 0 0 0 0 0 0 0 0 0 0 0
0 0 0 0 0 0 0 0 0 0 0 0 0 0 0 0 0 0 0 0 0 0 0 0 0 0 0 0 0 0 0 0 0 0 0 0 0 0 0 0 0 0 0
0 0 0 0 0 0 0 0 0 0 0 0 0 0 0 0 0 0 0 0 0 0 0 0 0 0 0 0 0 0 0 0 0 0 0 0 0 0 0 0 0 0 0
0 0 0 0 0 0 0 0 0 0 0 0 0 0 0 0 0 0 0 0 0 0 0 0 0 0 0 0 0 0 0 0 0 0 0 0 0 0 0 0 0 0 0
0 0 0 0 0 0 0 0 0 0 0 0 0 0 0 0 0 0 0 0 0 0 0 0 0 0 0 0 0 0 0 0 0 0 0 0 0 0 0 0 0 0 0
0 0 0 0 0 0 0 0 0 0 0 0 0 0 0 0 0 0 0 0 0 0 0 0 0 0 0 0 0 0 0 0 0 0 0 0 0 0 0 0 0 0 0
0 0 0 0 0 0 0 0 0 0 0 0 0 0 0 0 0 0 0 0 0 0 0 0 0 0 0 0 0 0 0 0 0 0 0 0 0 0 0 0 0 0 0
0 0 0 0 0 0 0 0 0 0 0 0 0 0 0 0 0 0 0 0 0 0 0 0 0 0 0 0 0 0 0 0 0 0 0 0 0 0 0 0 0 0 0
0 0 0 0 0 0 0 0 0 0 0 0 0 0 0 0 0 0 0 0 0 0 0 0 0 0 0 0 0 0 0 0 0 0 0 0 0 0 0 0 0 0 0
0 0 0 0 0 0 0 0 0 0 0 0 0 0 0 0 0 0 0 0 0 0 0 0 0 0 0 0 0 0 0 0 0 0 0 0 0 0 0 0 0 0 0
0 0 0 0 0 0 -0 -0 0 0 0 0 0 0 0 0 0 0 0 0 0 0 0 0 0 0 0 0 0 0 0 0 0 0 0 0 0 0 0 0 0 0 0
0 0 0 0 0 0 0 0 0 0 0 0 0 0 0 0 0 0 0 0 0 0 0 0 0 0 0 0 0 0 0 0 0 0 0 0 0 0 0 0 0 0 0
0 0 0 0 0 0 0 0 0 0 0 0 0 0 0 0 0 0 0 0 0 0 0 0 0 0 0 0 0 0 0 0 0 0 0 0 0 0 0 0 0 0 0
0 0 0 0 0 0 0 0 0 0 0 0 0 0 0 0 0 0 0 0 0 0 0 0 0 0 0 0 0 0 0 0 0 0 0 0 0 0 0 0 0 0 0
0 0 0 0 0 0 0 0 0 0 0 0 0 0 0 0 0 0 0 0 0 0 0 0 0 0 0 0 0 0 0 0 0 0 0 0 0 0 0 0 0 0 0
0 0 0 0 0 0 0 0 0 0 0 0 0 0 0 0 0 0 0 0 0 0 0 0 0 0 0 0 0 0 0 0 0 0 0 0 0 0 0 0 0 0 0
0 0 0 0 0 -0 -0 -0 0 0 0 0 0 0 0 0 0 0 0 0 0 0 0 0 0 0 0 0 0 0 0 0 0 0 0 0 0 0 0 0 0 0 0
0 0 0 0 0 -0 -0 -0 -0 0 0 0 0 0 0 0 0 0 0 0 0 0 0 0 0 0 0 0 0 0 0 0 0 0 0 0 0 0 0 0 0 0 0
0 0 0 0 0 0 0 0 0 0 0 0 0 0 0 0 0 0 0 0 0 0 0 0 0 0 0 0 0 0 0 0 0 0 0 0 0 0 0 0 0 0 0
0 0 0 0 0 0 0 0 0 0 0 0 0 0 0 0 0 0 0 0 0 0 0 0 0 0 0 0 0 0 0 0 0 0 0 0 0 0 0 0 0 0 0
0 0 0 0 0 0 0 0 0 0 0 0 0 0 0 0 0 0 0 0 0 0 0 0 0 0 0 0 0 0 0 0 0 0 0 0 0 0 0 0 0 0 0
0 0 0 0 0 0 0 0 0 0 0 0 0 0 0 0 0 0 0 0 0 0 0 0 0 0 0 0 0 0 0 0 0 0 0 0 0 0 0 0 0 0 0
0 0 0 0 0 0 0 0 0 0 0 0 0 0 0 0 0 0 0 0 0 0 0 0 0 0 0 0 0 0 0 0 0 0 0 0 0 0 0 0 0 0 0
0 0 0 0 0 0 0 0 0 0 0 0 0 0 0 0 0 0 0 0 0 0 0 0 0 0 0 0 0 0 0 0 0 0 0 0 0 0 0 0 0 0 0
0 0 0 0 0 0 0 0 0 0 0 0 0 0 0 0 0 0 0 0 0 0 0 0 0 0 0 0 0 0 0 0 0 0 0 0 0 0 0 0 0 0 0
0 0 0 0 0 0 0 0 0 0 0 0 0 0 0 0 0 0 0 0 0 0 0 0 0 0 0 0 0 0 0 0 0 0 0 0 0 0 0 0 0 0 0
Wind_Speed
12 10 10 10 10 9 9 10 13 13 13 11 12 13 13 12 12 12 14 16 16 17 16 11 13 12 11 12 12 9 10 7 7 6 4 3 3 4 4 4 5 5 4
11 11 12 12 12 12 11 9 9 10 12 11 10 9 10 10 11 10 13 16 16 17 15 15 13 14 12 14 14 12 9 7 9 6 5 5 4 5 5 5 5 5 4
10 13 14 15 16 16 15 11 9 7 10 11 8 7 7 7 9 11 11 14 15 16 16 17 15 15 14 14 16 15 14 10 10 6 5 6 7 5 6 7 6 6 5
13 14 16 18 19 18 16 15 12 7 5 8 9 11 10 10 10 8 9 11 14 15 16 17 17 16 14 15 15 15 13 12 11 7 5 3 2 6 6 7 8 8 7
15 17 18 18 19 18 17 16 15 11 6 4 8 10 10 9 7 7 9 11 12 14 16 17 16 16 14 15 16 16 15 12 12 9 6 5 3 4 5 6 7 8 8
16 17 17 17 18 19 19 18 17 16 12 6 6 9 11 10 10 9 8 9 9 11 16 16 16 16 14 16 16 16 18 14 13 11 8 8 7 7 6 5 5 6 7
15 16 18 19 19 20 20 19 20 19 16 12 8 7 9 11 12 11 10 10 9 10 14 15 16 15 16 16 15 16 17 18 17 14 11 9 9 6 7 6 5 5 4
14 15 15 16 16 17 18 18 19 18 18 16 13 9 9 8 8 10 10 10 9 10 12 15 16 17 17 16 16 15 16 16 17 17 15 10 9 7 7 7 7 5 5
12 13 13 14 14 15 16 16 16 16 17 16 15 13 11 9 10 11 11 10 11 10 13 14 16 17 17 17 17 14 17 16 17 17 16 12 9 8 7 7 8 8 8
10 11 11 12 12 12 13 14 15 15 15 15 13 11 13 12 11 10 11 12 13 12 13 14 16 17 17 17 18 16 17 17 17 14 16 15 10 9 8 8 7 8 8
8 8 9 9 10 10 12 13 13 14 14 14 13 13 13 13 12 10 11 11 12 13 13 14 15 16 17 18 18 19 18 20 19 17 18 18 15 11 10 9 9 8 8
7 8 9 10 10 11 12 12 12 13 13 13 12 12 12 12 12 12 12 12 12 12 13 14 15 16 17 18 19 20 20 21 21 20 20 20 14 16 13 11 12 10 10
8 9 10 10 11 11 11 11 11 12 12 12 12 12 13 13 13 13 13 12 12 12 11 13 15 16 16 18 19 19 20 21 21 20 21 20 19 20 15 15 13 11 9
6 8 9 10 10 11 11 11 12 11 12 11 11 12 12 13 13 13 13 13 13 12 12 12 14 15 16 17 17 17 19 20 20 20 20 20 22 22 20 16 16 13 12
5 7 8 8 9 10 10 10 11 11 11 11 11 11 12 12 13 13 14 14 13 12 12 12 13 14 14 14 16 17 18 19 20 20 21 21 21 23 20 16 17 16 14
7 8 8 9 9 9 9 9 10 10 10 11 11 11 11 12 12 13 14 14 14 13 13 12 13 14 12 18 24 20 18 18 20 20 20 20 20 21 29 28 26 25 21
9 10 10 10 9 9 9 9 9 9 10 10 10 10 11 12 13 13 14 14 14 14 14 14 13 15 17 23 25 26 19 19 19 20 18 16 16 19 21 27 30 28 29
11 12 12 13 11 11 10 10 9 10 10 10 10 10 11 12 13 14 15 15 14 14 14 14 15 15 16 21 24 24 21 21 21 20 19 19 18 19 21 19 20 20 22
13 13 13 13 13 13 11 10 11 11 11 12 11 11 11 12 14 15 16 15 15 15 15 14 15 16 17 21 23 24 15 17 21 19 19 19 20 24 29 22 21 20 18
14 13 13 13 13 13 10 12 13 13 14 13 12 12 11 11 14 16 17 16 15 16 16 16 15 16 17 20 23 25 14 16 16 15 16 18 19 24 30 23 21 22 19
16 15 14 13 13 12 11 14 16 16 14 13 13 13 13 13 15 16 16 16 16 17 17 18 17 16 17 20 24 26 16 16 15 14 14 15 26 28 30 28 19 21 17
16 14 13 14 15 13 13 16 18 16 14 14 15 15 15 15 14 16 17 17 16 17 18 17 18 14 14 16 21 26 27 24 17 15 12 14 24 28 30 26 24 26 21
12 12 13 16 16 14 13 16 18 16 16 15 16 17 19 17 16 17 18 17 15 15 15 15 15 14 11 13 22 25 28 29 20 14 18 19 24 26 24 29 30 23 16
12 12 13 16 17 15 15 15 17 17 16 19 21 19 19 19 18 15 15 14 14 15 15 15 15 14 13 11 10 11 13 19 20 16 15 24 26 23 20 19 22 16 14
11 12 13 16 18 18 18 17 17 18 20 21 21 20 18 18 17 16 15 17 16 17 18 15 15 15 15 14 16 12 11 10 12 11 10 12 12 14 14 14 14 14 14
12 13 14 16 18 18 19 18 17 17 19 19 18 16 15 15 15 16 17 24 27 31 35 34 30 22 27 28 26 24 24 24 22 14 12 13 14 14 14 14 14 14 14
Wind_Direction
321 338 333 326 315 302 277 251 236 223 212 207 207 211 214 213 214 215 211 206 201 196 196 189 183 183 186 184 178 167 167 164 158 143 135 133 158 176 171 168 159 148 139
340 4 11 9 358 346 334 304 262 234 216 213 210 216 219 219 217 216 216 212 207 201 199 193 187 188 188 186 183 176 175 169 185 176 153 163 183 201 195 188 182 172 165
10 25 27 24 18 11 360 346 318 263 225 214 210 208 221 231 219 217 217 214 212 208 205 201 193 192 192 191 189 187 183 180 190 216 195 178 185 166 182 199 196 193 192
37 34 32 28 23 15 10 8 0 337 260 217 213 210 214 223 227 222 219 214 213 214 212 209 203 198 197 195 193 193 195 188 187 198 232 259 177 167 166 189 203 206 212
42 39 34 30 26 21 20 17 18 17 355 246 228 229 236 243 247 235 225 217 211 216 218 217 211 205 203 200 194 193 197 198 195 188 178 186 203 211 169 174 184 200 210
45 42 38 35 30 27 27 25 25 25 13 343 270 250 251 253 252 243 234 221 212 214 219 221 217 213 208 205 199 196 199 201 204 198 189 179 180 191 191 173 170 187 187
43 37 33 32 30 29 28 28 28 26 19 10 341 299 277 268 261 256 245 233 221 215 215 215 218 218 215 210 204 202 203 204 205 205 204 205 202 178 188 185 158 164 158
41 39 34 32 30 29 28 28 29 26 21 17 5 344 313 287 275 267 259 248 237 229 221 215 218 220 218 215 209 210 209 208 210 212 211 210 206 192 184 179 162 163 171
37 35 32 30 28 28 27 26 26 24 21 18 13 4 349 321 297 284 271 263 253 244 230 221 221 222 220 217 213 216 213 211 212 214 212 213 207 204 196 180 180 182 189
35 31 29 26 25 24 23 25 25 22 17 14 13 8 4 350 330 308 290 276 266 256 242 230 224 224 223 220 218 220 218 214 214 214 212 212 207 201 196 188 188 198 203
30 28 26 23 22 20 19 19 18 16 12 9 6 5 4 360 352 336 315 298 283 268 252 239 230 226 223 220 222 223 220 218 217 214 214 213 205 201 196 190 186 190 192
24 20 17 15 15 15 14 13 10 10 5 1 0 1 1 360 357 348 335 320 300 282 264 251 240 233 227 223 223 225 225 221 219 216 214 214 205 207 199 194 193 192 190
11 7 6 4 4 4 3 4 3 3 358 355 356 357 357 355 352 346 339 330 316 297 277 258 249 241 233 229 226 227 228 227 224 220 216 213 204 207 202 199 196 191 186
350 352 351 350 350 350 351 352 352 354 351 350 351 353 352 348 343 340 338 333 324 310 293 272 257 249 241 234 230 229 231 231 229 225 220 216 210 208 201 198 196 187 183
321 331 330 329 331 333 336 339 338 343 343 341 343 344 341 340 338 337 335 332 326 316 302 285 268 255 247 239 234 231 232 233 232 229 225 221 217 213 204 198 193 186 185
307 314 313 310 309 312 315 318 321 327 330 328 329 330 332 334 334 332 329 327 326 321 311 294 277 264 250 243 237 233 232 233 234 232 228 224 218 213 211 208 199 193 188
304 312 314 309 301 297 296 298 302 308 311 311 314 318 323 325 325 324 323 322 320 316 311 301 290 276 263 254 245 237 233 233 234 233 230 225 220 212 213 213 209 206 207
295 306 311 309 303 295 289 288 289 292 294 297 301 307 314 316 317 317 315 314 313 309 304 300 293 284 273 264 254 244 236 237 236 234 230 227 222 213 209 206 206 206 209
285 294 301 303 299 294 292 288 285 285 285 287 291 298 306 308 310 309 308 308 306 301 297 292 287 281 276 267 259 250 241 239 238 234 231 227 224 216 209 205 205 205 207
282 288 297 300 295 295 294 286 285 286 285 286 289 294 297 298 299 300 300 299 296 292 292 287 282 277 273 267 260 251 243 242 239 232 228 224 221 215 209 207 204 204 198
286 291 297 298 296 299 296 288 288 289 292 292 290 290 293 295 294 293 291 291 290 288 285 282 278 272 267 265 258 249 240 241 240 233 225 222 219 217 213 209 209 208 189
298 303 305 300 301 305 302 295 294 300 303 299 294 294 294 293 290 288 286 285 283 281 279 278 276 269 261 255 253 248 243 241 240 236 225 216 213 213 213 213 210 206 189
309 311 307 303 302 308 309 301 304 312 310 304 297 293 292 288 285 281 281 280 276 271 272 272 273 273 265 256 253 249 247 246 243 239 225 209 206 208 212 214 207 198 189
314 317 315 307 305 313 314 311 314 315 308 299 296 295 293 290 286 280 275 272 270 269 269 269 270 271 268 259 250 246 247 248 248 243 222 207 203 204 204 207 204 195 189
322 322 315 308 308 313 312 313 311 308 300 297 295 294 291 288 287 281 273 273 265 264 269 270 271 272 269 262 252 240 239 236 239 227 200 191 191 198 200 199 193 185 180
320 315 311 308 307 308 305 305 304 300 297 296 295 293 291 289 286 285 283 275 272 274 271 268 266 265 263 265 262 253 243 241 241 222 197 192 191 194 193 191 183 177 175